Probability
6 13 16 10 10 6 3 3 6 6 3 6 6 0 0 0 0 0 3 3 3 3 6 10 10 6 3 3 3 3 3 3 0 3 10 10 10 10 10 13 13 23 35
3 3 10 10 3 10 6 6 3 3 3 0 0 0 0 0 0 0 0 3 3 3 6 6 6 3 0 0 0 0 0 0 0 0 0 0 3 3 6 10 13 13 19
0 3 3 0 0 3 6 10 3 0 0 0 0 0 0 0 0 3 3 0 3 3 0 0 0 0 0 0 0 0 0 0 0 0 0 0 0 0 0 0 6 10 13
0 0 0 0 0 0 6 6 6 0 0 0 0 0 3 3 0 0 0 0 0 0 0 0 0 0 0 0 0 0 0 0 0 0 0 0 0 0 0 0 0 0 0
0 0 0 0 0 0 3 3 3 0 0 0 0 0 0 0 0 0 0 0 0 0 0 0 0 0 0 0 0 0 0 0 0 0 0 0 0 0 0 0 0 0 0
0 0 0 0 0 0 0 0 0 0 0 0 0 0 0 0 0 0 0 0 0 0 0 0 0 0 0 0 0 0 0 0 0 0 0 0 0 0 0 0 0 0 0
0 0 0 0 0 0 0 0 0 0 0 0 0 0 0 0 0 0 0 0 0 0 0 0 0 0 0 0 0 0 0 0 0 0 0 0 0 0 0 0 0 0 0
0 0 0 0 0 0 0 0 0 0 0 0 0 0 0 0 0 0 0 0 0 0 0 0 0 0 0 0 0 0 0 0 0 0 0 0 0 0 0 0 0 0 0
0 0 0 0 0 0 0 0 0 0 0 0 0 0 0 0 0 0 0 0 0 0 0 0 0 0 0 0 0 0 0 0 0 0 0 0 0 0 0 0 0 0 0
0 0 0 0 0 0 0 0 0 0 0 0 0 0 0 0 0 0 0 0 0 0 0 0 0 0 0 0 0 0 0 0 0 0 0 0 0 0 0 0 0 0 0
0 0 0 0 0 0 0 0 0 0 0 0 0 0 0 0 0 0 0 0 0 0 0 0 0 0 0 0 0 0 0 0 0 0 0 0 0 0 0 0 0 0 0
0 0 0 0 0 0 0 0 0 0 0 0 0 0 0 0 0 0 0 0 0 0 0 0 0 0 0 0 0 0 0 0 0 0 0 0 0 0 0 0 0 0 0
0 0 0 0 0 0 0 0 0 0 0 0 0 0 0 0 0 0 0 0 0 0 0 0 0 0 0 0 0 0 0 0 0 0 0 0 0 0 0 0 0 0 0
0 0 0 0 0 0 0 0 0 0 0 0 0 0 0 0 0 0 0 0 0 0 0 0 0 0 0 0 0 0 0 0 0 0 0 0 0 0 0 0 0 0 0
0 0 0 0 0 0 0 0 0 0 0 0 0 0 0 0 0 0 0 0 0 0 0 0 0 0 0 0 0 0 0 0 0 0 0 0 0 0 0 0 0 0 0
0 0 0 0 0 0 0 0 0 0 0 0 0 0 0 0 0 0 0 0 0 0 0 0 0 0 0 0 0 0 0 0 0 0 0 0 0 0 0 0 0 0 0
0 0 0 0 0 0 0 0 0 0 0 0 0 0 0 0 0 0 0 0 0 0 0 0 0 0 0 0 0 0 0 0 0 0 0 0 0 0 0 0 0 0 0
0 0 0 0 0 0 0 0 0 0 0 0 0 0 0 0 0 0 0 0 0 0 0 0 0 0 0 0 0 0 0 0 0 0 0 0 0 0 0 0 0 0 0
0 0 0 0 0 0 0 0 0 0 0 0 0 0 0 0 0 0 0 0 0 0 0 0 0 0 0 0 0 0 0 0 0 0 0 0 0 0 0 0 0 0 0
0 0 0 0 0 0 0 0 0 0 0 0 0 0 0 0 0 0 0 0 0 0 0 0 0 0 0 0 0 0 0 0 0 0 0 0 0 0 0 0 0 0 0
0 0 0 0 0 0 0 0 0 0 0 0 0 0 0 0 0 0 0 0 0 0 0 0 0 0 0 0 0 0 0 0 0 0 0 0 0 0 0 0 0 0 0
0 0 0 0 0 0 0 0 0 0 0 0 0 0 0 0 0 0 0 0 0 0 0 0 0 0 0 0 0 0 0 0 0 0 0 0 0 0 0 0 0 0 0
0 0 0 0 0 0 0 0 0 0 0 0 0 0 0 0 0 0 0 0 0 0 0 0 0 0 0 0 0 0 0 0 0 0 0 0 0 0 0 0 0 0 0
0 0 0 0 0 0 0 0 0 0 0 0 0 0 0 0 0 0 0 0 0 0 0 0 0 0 0 0 0 0 0 0 0 0 0 0 0 0 0 0 0 0 0
0 0 0 0 0 0 0 0 0 0 0 0 0 0 0 0 0 0 0 0 0 0 0 0 0 0 0 0 0 0 0 0 0 0 0 0 0 0 0 0 0 0 0
0 0 0 0 0 0 0 0 0 0 0 0 0 0 0 0 0 0 0 0 0 0 0 0 0 0 0 0 0 0 0 0 0 0 0 0 0 0 0 0 0 0 0
Height
5841 5839 5838 5837 5835 5835 5834 5833 5831 5829 5827 5825 5824 5822 5821 5820 5818 5817 5815 5813 5813 5812 5812 5812 5812 5811 5811 5811 5811 5812 5814 5815 5816 5817 5820 5822 5825 5827 5830 5833 5836 5839 5842
5838 5837 5835 5834 5833 5831 5829 5827 5825 5823 5821 5819 5817 5815 5814 5812 5810 5808 5806 5804 5803 5803 5803 5802 5802 5802 5802 5802 5802 5803 5805 5806 5807 5809 5810 5813 5817 5819 5822 5825 5828 5831 5834
5836 5834 5833 5831 5829 5827 5825 5823 5820 5818 5815 5813 5811 5808 5806 5803 5801 5799 5797 5796 5794 5793 5793 5792 5792 5792 5792 5792 5792 5793 5795 5797 5798 5799 5802 5804 5808 5811 5814 5817 5820 5823 5827
5834 5832 5830 5828 5826 5824 5821 5818 5815 5813 5810 5807 5804 5801 5799 5796 5793 5791 5788 5787 5785 5784 5783 5782 5782 5782 5782 5782 5782 5783 5784 5786 5787 5788 5791 5794 5798 5801 5805 5808 5811 5814 5818
5832 5830 5828 5826 5823 5820 5817 5814 5811 5807 5804 5801 5798 5794 5791 5788 5785 5782 5779 5777 5775 5773 5772 5771 5770 5770 5770 5771 5771 5772 5773 5775 5777 5779 5781 5784 5787 5791 5794 5798 5802 5806 5809
5831 5828 5826 5823 5820 5817 5814 5810 5806 5802 5798 5794 5791 5787 5783 5779 5776 5773 5770 5767 5765 5763 5761 5760 5759 5759 5759 5759 5760 5761 5762 5764 5766 5768 5770 5773 5776 5780 5784 5788 5792 5796 5800
5829 5826 5824 5821 5817 5813 5809 5805 5801 5796 5792 5787 5783 5778 5774 5770 5767 5763 5760 5757 5754 5752 5750 5749 5748 5747 5747 5747 5748 5749 5750 5752 5754 5756 5759 5762 5765 5769 5773 5777 5782 5786 5790
5827 5824 5820 5817 5813 5808 5804 5799 5794 5789 5784 5779 5775 5770 5765 5761 5757 5753 5750 5747 5744 5741 5739 5737 5736 5735 5734 5734 5735 5736 5738 5740 5742 5744 5747 5750 5753 5757 5761 5766 5770 5775 5780
5824 5820 5816 5811 5807 5802 5798 5793 5787 5782 5777 5771 5766 5761 5756 5751 5747 5743 5739 5736 5733 5730 5728 5726 5724 5723 5722 5722 5722 5723 5725 5726 5728 5731 5734 5737 5741 5745 5748 5753 5759 5764 5769
5820 5815 5811 5806 5801 5796 5791 5786 5780 5774 5769 5763 5757 5752 5746 5741 5737 5733 5729 5725 5722 5719 5717 5714 5712 5711 5710 5709 5709 5710 5711 5713 5715 5718 5721 5724 5728 5732 5736 5741 5746 5751 5757
5815 5810 5805 5800 5795 5790 5785 5779 5773 5767 5760 5754 5749 5743 5737 5732 5727 5722 5718 5714 5711 5708 5705 5703 5701 5699 5697 5696 5696 5696 5698 5699 5702 5704 5707 5710 5714 5718 5723 5728 5733 5739 5745
5810 5805 5800 5794 5789 5784 5778 5772 5765 5759 5753 5746 5740 5734 5728 5723 5718 5713 5708 5704 5700 5697 5693 5691 5688 5686 5684 5683 5682 5682 5683 5685 5687 5690 5693 5696 5700 5704 5709 5714 5720 5726 5732
5805 5799 5794 5789 5783 5777 5771 5765 5759 5752 5745 5738 5732 5726 5720 5714 5709 5704 5699 5694 5690 5686 5682 5679 5676 5673 5671 5669 5668 5668 5669 5671 5673 5676 5679 5682 5686 5690 5695 5701 5706 5712 5719
5800 5795 5789 5784 5778 5772 5765 5759 5752 5745 5738 5731 5724 5718 5712 5706 5700 5695 5689 5684 5679 5675 5671 5668 5664 5661 5658 5656 5655 5655 5656 5657 5659 5661 5664 5667 5671 5676 5681 5686 5692 5698 5705
5795 5790 5785 5779 5773 5766 5760 5753 5746 5739 5731 5724 5717 5711 5704 5698 5692 5686 5680 5675 5670 5665 5661 5657 5652 5648 5645 5643 5642 5642 5642 5643 5644 5646 5649 5653 5657 5662 5667 5672 5678 5684 5690
5791 5786 5780 5774 5768 5761 5754 5747 5740 5732 5725 5718 5710 5704 5697 5690 5683 5677 5671 5666 5661 5655 5651 5646 5641 5637 5633 5631 5629 5628 5628 5628 5630 5632 5634 5637 5642 5647 5652 5658 5664 5670 5676
5787 5781 5775 5769 5763 5756 5749 5742 5734 5726 5719 5711 5704 5697 5690 5683 5676 5669 5663 5657 5652 5646 5641 5636 5631 5626 5622 5618 5616 5614 5614 5614 5615 5617 5620 5623 5627 5631 5637 5643 5649 5655 5662
5783 5777 5771 5765 5758 5751 5743 5736 5728 5721 5713 5705 5698 5690 5683 5676 5669 5662 5656 5650 5644 5638 5632 5626 5621 5615 5611 5607 5604 5602 5601 5601 5602 5603 5606 5609 5613 5617 5622 5628 5634 5641 5647
5779 5773 5767 5760 5753 5746 5738 5731 5723 5715 5707 5699 5692 5685 5677 5670 5663 5656 5650 5643 5636 5630 5623 5617 5612 5606 5601 5597 5593 5590 5589 5588 5589 5590 5592 5595 5599 5603 5608 5614 5620 5627 5633
5774 5768 5762 5755 5748 5741 5733 5725 5718 5710 5702 5694 5686 5679 5672 5665 5658 5650 5643 5637 5630 5622 5616 5610 5604 5598 5593 5588 5584 5581 5579 5578 5578 5578 5580 5583 5586 5589 5593 5599 5606 5612 5619
5770 5764 5757 5750 5743 5736 5728 5720 5713 5705 5697 5689 5681 5674 5667 5660 5652 5645 5638 5631 5624 5617 5610 5603 5597 5591 5586 5580 5576 5572 5570 5568 5568 5568 5568 5570 5573 5577 5581 5587 5593 5599 5605
5765 5759 5752 5745 5738 5731 5723 5716 5708 5700 5693 5685 5677 5669 5662 5655 5647 5640 5633 5626 5618 5611 5604 5598 5591 5585 5579 5574 5568 5564 5561 5560 5559 5558 5558 5560 5562 5565 5570 5575 5581 5586 5593
5761 5754 5748 5741 5734 5726 5719 5711 5704 5696 5688 5680 5672 5665 5658 5650 5643 5635 5628 5621 5614 5607 5600 5593 5586 5580 5574 5568 5563 5558 5555 5553 5551 5551 5551 5551 5553 5556 5560 5564 5569 5575 5582
5756 5750 5743 5736 5729 5722 5714 5707 5699 5692 5684 5676 5668 5661 5654 5646 5638 5631 5624 5617 5610 5603 5596 5589 5582 5576 5570 5564 5559 5554 5550 5547 5546 5544 5544 5544 5546 5548 5551 5555 5560 5566 5572
5751 5745 5738 5732 5724 5717 5710 5702 5695 5687 5680 5672 5664 5657 5650 5642 5635 5627 5620 5613 5606 5599 5593 5586 5579 5573 5567 5561 5556 5551 5547 5544 5542 5540 5539 5539 5540 5541 5544 5547 5552 5557 5563
5746 5740 5734 5727 5720 5712 5705 5698 5691 5683 5676 5668 5661 5653 5646 5639 5631 5624 5617 5609 5603 5597 5590 5583 5577 5570 5565 5559 5554 5549 5545 5542 5539 5537 5535 5535 5535 5537 5538 5541 5545 5550 5555
Wind_Speed
17 17 17 18 18 19 20 21 22 24 25 26 27 27 28 30 30 32 33 33 34 34 34 34 34 35 35 35 35 34 34 33 33 33 33 33 33 32 32 32 31 32 32
16 17 16 17 18 18 20 21 23 25 26 28 29 29 30 31 32 32 33 34 35 35 35 35 35 35 36 37 37 36 35 35 34 35 35 34 33 33 33 33 33 33 33
16 16 17 18 19 19 21 23 25 26 28 30 31 32 33 34 34 35 35 35 35 36 37 37 37 37 37 38 38 37 37 36 36 36 36 35 35 35 35 35 35 35 34
14 15 16 17 19 21 23 25 27 29 30 32 33 33 34 35 36 36 37 37 37 37 37 37 38 38 38 38 39 39 39 38 38 37 37 36 36 36 36 37 36 36 36
13 14 15 17 19 22 24 25 27 29 30 32 33 34 35 35 36 36 37 37 37 37 37 37 38 38 39 39 39 40 40 40 39 38 38 38 37 38 38 38 38 38 37
13 15 17 18 20 22 23 25 27 29 31 32 33 34 34 34 35 35 36 36 36 37 37 37 38 39 40 40 40 41 41 41 41 41 40 40 40 40 40 40 40 41 39
15 16 17 19 20 22 24 26 28 30 31 32 33 34 33 33 33 33 34 35 35 36 37 37 38 39 39 40 40 41 41 42 42 42 42 42 42 42 41 42 42 42 41
16 17 18 19 21 24 26 28 29 31 32 32 33 33 33 33 33 33 34 34 34 35 36 37 37 38 38 39 39 40 42 42 42 43 43 43 43 43 43 43 43 44 43
17 19 20 22 24 26 28 30 31 32 33 33 34 34 34 34 34 34 34 34 34 34 35 36 37 38 38 39 39 40 41 42 43 44 44 44 44 44 45 44 45 46 45
19 21 23 25 27 29 30 31 32 33 34 35 35 35 35 34 34 34 34 34 34 34 35 35 36 37 38 39 40 40 41 42 43 44 45 45 45 46 46 46 46 47 47
22 24 26 28 30 32 32 33 35 35 36 36 36 36 36 35 34 34 33 33 33 34 34 35 35 37 38 39 40 41 42 43 43 45 45 45 46 47 48 48 47 48 48
25 27 29 30 32 33 34 35 36 37 38 38 37 37 36 35 34 34 34 34 35 35 35 35 35 37 38 38 39 40 41 42 43 44 45 46 46 47 48 49 49 49 49
27 29 31 32 34 35 36 37 38 39 39 39 38 37 36 35 34 34 35 35 35 34 34 34 35 36 37 38 38 38 39 40 42 43 45 46 47 48 49 50 51 51 51
29 30 32 34 35 36 37 38 39 40 40 39 38 37 36 35 35 35 35 35 34 33 33 34 35 35 35 35 35 36 38 39 41 42 44 45 46 47 49 50 52 54 53
30 32 33 35 37 37 38 39 40 40 40 39 38 37 36 36 36 35 35 34 34 33 34 35 35 34 34 34 34 36 37 39 40 41 43 45 46 47 49 50 51 53 55
31 33 35 37 37 38 38 40 40 40 40 39 38 37 37 37 37 35 34 33 33 33 34 34 34 34 34 34 35 35 36 38 39 41 42 44 46 47 48 49 50 52 54
32 34 35 37 38 38 39 40 40 40 40 39 38 37 37 37 36 34 34 33 33 33 33 33 33 33 33 33 34 34 35 36 37 39 40 42 43 46 47 48 49 51 54
33 34 36 37 38 38 39 40 40 40 40 39 38 38 37 37 35 34 34 34 34 34 33 33 33 32 32 32 32 32 33 34 36 37 39 40 42 43 46 47 49 50 53
33 35 36 38 38 39 40 40 40 41 40 39 38 38 37 35 35 34 34 35 34 34 33 32 31 31 30 29 29 28 29 30 32 34 37 38 40 42 44 46 48 50 52
34 35 37 38 39 39 40 40 40 40 40 39 39 37 36 35 35 35 35 35 34 33 31 31 31 30 28 27 27 26 26 27 28 30 33 36 38 41 43 44 46 49 51
34 36 37 38 39 40 40 41 40 40 40 40 38 37 36 35 35 35 34 34 33 32 31 30 30 29 27 26 26 25 24 25 26 27 29 32 35 38 41 43 44 46 48
35 37 38 39 39 40 40 41 40 40 40 39 38 36 36 35 35 35 34 33 33 31 30 30 29 28 27 26 24 22 21 21 22 23 25 27 31 34 37 40 43 44 46
36 37 38 39 40 40 40 40 40 39 39 39 38 36 36 35 35 34 33 33 32 31 30 29 28 28 26 25 22 20 18 18 18 18 20 22 25 29 32 36 39 41 43
36 37 38 39 40 40 40 40 39 39 39 39 38 36 35 35 35 34 33 32 31 30 29 28 28 27 25 23 21 19 17 15 15 15 16 19 21 24 28 31 35 38 40
36 37 38 39 40 40 40 40 40 39 39 39 38 36 35 35 34 33 33 32 30 30 28 28 27 25 23 22 21 19 16 14 13 13 13 16 18 20 23 26 30 34 37
36 37 39 40 40 40 40 41 40 39 39 39 38 37 35 34 33 32 32 31 30 29 28 27 27 25 23 21 20 19 16 14 13 11 11 12 14 16 19 23 26 30 34
Wind_Direction
299 295 292 295 299 299 299 299 298 298 298 298 298 297 296 294 292 288 286 282 280 277 275 275 274 272 271 269 267 263 262 260 259 257 255 253 250 249 246 243 241 239 238
305 305 303 302 301 301 302 304 304 303 302 301 301 300 299 296 294 292 289 284 282 279 276 274 273 272 270 267 266 262 261 260 260 259 255 252 250 249 245 242 241 239 236
305 307 307 307 306 305 307 308 308 307 306 304 303 302 300 298 296 294 291 288 285 281 277 275 274 272 270 268 266 263 261 260 260 259 257 253 251 248 245 242 241 237 235
310 310 311 311 311 311 312 311 310 308 306 305 304 302 300 298 296 293 291 288 286 283 280 277 275 273 270 268 266 263 261 260 258 256 254 252 249 245 244 242 240 237 236
317 317 315 314 313 312 312 312 310 308 307 305 304 302 299 297 295 293 290 288 286 283 280 277 275 273 270 267 265 263 261 259 257 255 253 251 248 244 241 240 239 238 237
319 318 316 313 313 312 311 311 309 308 307 306 305 304 301 298 295 293 290 288 286 283 280 278 276 273 271 267 264 262 260 258 256 254 252 250 248 245 242 240 239 239 237
320 318 315 314 314 315 314 313 312 311 310 310 309 307 305 302 298 295 292 290 287 285 282 279 276 274 271 269 265 263 260 257 255 254 251 249 248 246 243 240 238 236 235
323 322 321 321 322 322 320 319 317 316 314 313 312 310 307 304 301 297 294 291 289 286 283 280 277 275 272 269 267 264 260 257 255 253 251 249 247 246 244 241 238 234 233
328 329 329 329 329 328 326 324 322 319 318 316 315 313 310 307 304 300 297 294 290 287 284 281 279 276 273 271 268 264 261 257 254 252 250 248 247 245 244 240 237 234 233
332 333 334 333 333 332 330 327 326 324 322 320 318 316 313 310 307 303 300 297 293 290 286 283 280 278 275 272 269 265 262 259 255 252 250 248 246 244 242 240 238 235 233
335 337 338 337 335 333 332 330 329 328 326 323 321 319 316 313 310 307 303 300 297 295 291 287 284 280 277 273 269 265 262 259 256 252 250 247 245 243 241 239 236 234 232
339 339 339 338 337 335 334 333 332 330 328 326 324 322 319 316 312 309 306 303 300 297 294 290 288 284 280 276 271 265 262 259 255 253 250 247 245 242 240 238 236 234 232
341 341 340 339 338 337 336 335 333 332 330 328 326 324 322 318 315 311 309 306 303 299 296 294 292 289 284 279 274 267 263 259 256 253 249 247 245 242 240 238 236 234 233
342 341 340 339 338 337 336 336 334 333 332 330 328 326 324 321 317 314 311 308 305 302 299 298 296 292 288 280 275 270 265 260 256 253 249 246 244 243 240 238 236 234 233
341 341 340 340 339 337 336 336 335 334 333 332 330 328 326 324 321 317 314 312 309 305 303 301 299 294 289 282 276 272 267 262 258 254 250 247 244 242 240 238 237 234 232
340 340 340 340 339 337 337 336 335 335 334 333 332 331 329 327 324 321 318 316 312 309 307 305 301 297 291 285 280 274 268 264 258 255 251 248 244 241 238 237 236 235 233
339 340 340 339 339 338 338 338 337 336 336 335 334 333 331 330 328 325 322 319 316 314 312 310 307 302 295 289 284 277 270 265 260 256 252 249 246 242 239 236 236 235 234
339 339 339 339 339 338 338 338 338 338 337 337 336 335 334 333 331 329 326 323 321 318 316 314 312 308 301 294 288 281 274 268 262 257 252 249 246 243 240 237 235 234 233
338 338 338 338 339 339 339 339 339 339 339 338 337 336 335 335 333 331 329 327 325 322 319 318 316 314 309 302 295 287 279 271 265 259 254 249 246 243 240 238 235 233 232
338 338 337 338 339 339 339 339 339 339 340 339 338 337 337 336 335 333 331 330 329 327 324 322 320 318 314 308 301 293 284 276 268 262 256 250 245 242 239 237 234 232 231
337 338 338 338 339 340 340 340 339 340 340 340 339 338 338 337 336 335 334 334 332 330 328 326 325 323 319 314 308 299 289 279 273 266 259 252 246 242 238 235 233 232 230
338 338 339 339 340 340 341 341 340 340 341 341 340 339 338 338 337 337 337 336 335 333 332 331 330 327 324 320 314 306 296 286 278 270 261 253 247 240 236 233 231 231 230
337 338 339 339 340 341 341 341 341 341 342 342 342 340 339 339 339 338 338 338 338 337 335 334 333 331 329 327 322 313 304 294 285 274 264 255 248 240 234 231 229 229 229
336 337 338 339 340 341 342 342 342 342 342 342 342 341 340 340 340 340 339 340 340 341 338 337 337 336 335 334 331 326 316 304 292 282 268 257 250 242 235 230 228 226 226
336 337 337 339 339 340 341 342 343 342 342 342 342 341 340 340 340 340 341 341 342 343 342 342 342 341 341 340 338 335 329 320 306 293 276 261 251 241 233 230 227 226 225
335 336 336 337 338 338 340 341 342 342 342 342 341 341 340 340 341 342 342 343 343 344 346 346 348 348 346 346 344 342 338 331 321 306 287 269 255 243 234 228 226 224 223